Snowfall_Accumulation
0.0 0.0 0.0 0.0 0.0 0.0 0.0 0.0 0.0 0.0 0.0 0.0 0.0 0.0 0.0 0.0 0.0 0.0 0.0 0.0 0.0 0.0 0.0 0.0 0.0 0.0 0.0 0.0 0.0 0.0 0.0 0.0 0.0 0.0 0.0 0.0 0.0 0.0 0.0 0.0 0.0 0.0 0.0 0.0
0.0 0.0 0.0 0.0 0.0 0.0 0.0 0.0 0.1 0.0 0.0 0.0 0.0 0.0 0.0 0.0 0.0 0.0 0.0 0.0 0.0 0.0 0.0 0.0 0.0 0.0 0.0 0.0 0.0 0.0 0.0 0.0 0.0 0.0 0.0 0.0 0.0 0.0 0.0 0.0 0.0 0.0 0.0 0.0
0.0 0.0 0.0 0.0 0.0 0.0 0.0 0.0 0.0 0.0 0.0 0.0 0.0 0.1 0.0 0.0 0.0 0.0 0.0 0.0 0.0 0.0 0.0 0.0 0.0 0.0 0.0 0.0 0.0 0.0 0.0 0.0 0.0 0.0 0.0 0.0 0.0 0.0 0.0 0.0 0.0 0.0 0.0 0.0
0.0 0.0 0.0 0.0 0.0 0.0 0.1 0.0 0.0 0.0 1.0 2.0 0.0 3.0 0.0 0.0 0.0 0.0 0.0 0.0 0.0 0.0 0.0 0.0 0.0 0.0 0.0 0.0 0.0 0.0 0.0 0.0 0.0 0.0 0.0 0.0 0.0 0.0 0.0 0.0 0.0 0.0 0.0 0.0
0.0 0.0 0.0 0.0 0.0 0.0 0.0 0.0 0.0 0.0 0.6 0.8 0.1 3.6 0.0 0.0 0.0 0.0 0.0 0.0 0.0 0.0 0.0 0.0 0.0 0.0 0.0 0.0 0.0 0.0 0.0 0.0 0.0 0.0 0.0 0.0 0.0 0.0 0.0 0.0 0.0 0.0 0.0 0.0
0.0 0.0 0.0 0.0 0.0 0.0 0.0 0.0 0.0 0.1 0.1 7.9 0.7 0.4 0.3 0.0 0.0 0.0 0.0 0.0 0.0 0.0 0.0 0.0 0.0 0.0 0.0 0.0 0.0 0.0 0.0 0.0 0.0 0.0 0.0 0.0 0.0 0.0 0.0 0.0 0.0 0.0 0.0 0.0
0.0 0.0 0.0 0.0 0.0 0.0 0.1 0.2 3.6 3.1 8.2 2.6 0.1 0.4 0.2 0.0 0.0 0.0 0.0 0.0 0.0 0.0 0.0 0.0 0.0 0.0 0.0 0.0 0.0 0.0 0.0 0.0 0.0 0.0 0.0 0.0 0.0 0.0 0.0 0.0 0.0 0.0 0.0 0.0
0.5 0.5 0.0 0.0 0.1 1.1 0.1 1.5 3.3 3.1 0.9 0.2 0.0 1.4 0.5 0.0 0.0 0.0 0.0 0.0 0.0 0.0 0.0 0.0 0.0 0.0 0.0 0.0 0.0 0.0 0.0 0.0 0.0 0.0 0.0 0.0 0.0 0.0 0.0 0.0 0.0 0.0 0.0 0.0
0.8 0.1 0.0 0.0 0.0 0.0 0.1 1.8 0.0 2.5 0.3 2.3 0.1 0.0 0.0 0.0 0.0 0.0 0.0 0.0 0.0 0.0 0.0 0.0 0.0 0.0 0.0 0.0 0.0 0.0 0.0 0.0 0.0 0.0 0.0 0.0 0.0 0.0 0.0 0.0 0.0 0.0 0.0 0.0
0.1 0.8 0.0 0.0 0.0 0.0 0.2 0.1 2.2 4.7 7.6 1.1 0.0 0.3 0.5 0.0 0.0 0.0 0.0 0.0 0.0 0.0 0.0 0.0 0.0 0.0 0.0 0.0 0.0 0.0 0.0 0.0 0.0 0.0 0.0 0.0 0.0 0.0 0.0 0.0 0.0 0.0 0.0 0.0
0.3 1.1 0.0 0.0 0.3 1.7 1.1 6.8 1.7 1.3 1.7 4.3 1.8 1.1 0.3 0.2 0.1 0.2 0.0 0.0 0.0 0.0 0.0 0.0 0.0 0.0 0.0 0.0 0.0 0.0 0.0 0.0 0.0 0.0 0.0 0.0 0.0 0.0 0.0 0.0 0.0 0.0 0.0 0.0
0.1 0.7 2.8 0.1 0.8 0.9 0.4 1.5 1.4 2.4 2.9 1.9 4.3 6.1 0.1 0.8 1.4 2.4 0.8 0.2 0.0 0.0 0.0 0.0 0.0 0.0 0.0 0.0 0.0 0.0 0.0 0.0 0.0 0.0 0.0 0.0 0.0 0.0 0.0 0.0 0.0 0.0 0.0 0.0
2.2 1.2 1.3 0.5 1.1 0.3 2.5 2.4 4.5 1.6 1.5 4.3 16.5 8.2 0.1 0.3 0.9 1.6 1.5 0.2 0.2 0.1 0.0 0.0 0.0 0.0 0.0 0.0 0.0 0.0 0.0 0.0 0.0 0.0 0.0 0.0 0.0 0.0 0.0 0.0 0.0 0.0 0.0 0.0
nan 0.3 1.2 2.4 1.0 0.9 5.4 2.8 3.0 5.2 14.4 3.4 9.2 7.5 2.1 1.0 0.8 0.7 0.4 0.7 0.7 0.8 0.7 0.2 0.2 0.1 0.1 0.1 0.1 0.2 0.2 0.2 0.2 0.1 0.0 0.0 0.0 0.0 0.0 0.0 0.0 0.0 0.0 0.0
0.2 2.3 0.0 0.0 0.1 0.4 2.1 5.4 3.2 12.7 6.2 12.1 11.3 10.1 6.1 5.5 9.4 7.1 6.4 4.1 2.0 2.1 3.3 1.7 1.6 0.9 0.7 0.8 0.7 0.7 0.7 0.4 0.2 0.2 0.3 0.3 0.1 0.0 0.0 0.0 0.0 0.0 0.0 0.0
0.0 2.1 1.8 2.6 0.2 1.8 6.1 2.5 2.4 2.7 3.2 4.7 4.8 8.0 4.1 5.9 4.6 5.4 4.1 4.2 3.4 4.4 3.2 2.7 1.9 1.1 1.3 1.4 1.5 1.3 1.4 1.1 0.8 1.0 0.8 0.5 0.2 0.1 0.0 0.0 0.0 0.0 0.0 0.0
1.8 1.6 4.7 1.7 0.2 0.9 7.2 12.3 6.3 4.7 8.1 8.0 15.2 9.7 6.3 6.3 5.9 6.5 5.2 6.4 8.6 7.3 6.3 6.3 3.7 2.9 1.9 1.6 1.3 1.6 1.2 1.0 1.0 0.8 0.5 0.4 0.2 0.1 0.1 0.0 0.0 0.0 0.0 0.0
0.7 1.8 2.1 3.9 0.9 11.5 4.6 1.0 4.1 9.5 8.8 8.5 7.6 10.6 7.9 8.1 4.2 5.1 6.0 9.9 9.3 10.9 8.9 8.5 6.0 5.5 1.6 1.3 1.3 1.0 0.9 1.0 0.7 0.6 0.3 0.1 0.2 0.1 0.0 0.0 0.0 0.0 0.0 0.0
0.0 0.3 6.3 9.0 2.2 0.1 0.2 0.2 2.7 11.9 7.5 3.7 8.0 5.8 4.4 2.1 1.1 0.9 0.3 3.1 7.8 11.1 12.0 11.3 11.0 8.8 4.0 2.1 1.7 1.6 1.2 0.8 0.5 0.3 0.2 0.1 0.1 0.1 0.0 0.1 0.0 0.0 0.1 0.0
0.1 0.3 2.9 4.0 7.8 4.6 0.4 0.0 0.0 0.9 9.1 0.7 4.5 3.8 4.7 2.5 6.6 2.0 1.6 3.9 6.9 9.2 13.8 17.9 12.3 8.6 4.4 1.4 1.1 1.1 0.6 0.5 0.2 0.1 0.1 0.1 0.1 0.1 0.1 0.0 0.1 0.0 0.1 0.1
1.8 3.3 5.1 1.7 8.5 1.3 0.3 0.5 0.4 2.8 2.3 0.6 1.8 3.0 6.7 13.3 6.3 2.6 2.5 2.9 4.4 8.7 14.4 13.7 10.6 10.2 5.9 2.3 2.2 0.5 0.6 0.5 0.2 0.1 0.1 0.1 0.1 0.1 0.0 0.0 0.1 0.1 0.2 0.2
4.3 3.4 2.9 2.8 7.6 8.5 0.0 0.0 1.8 1.0 0.0 0.2 0.5 2.7 6.6 1.9 2.1 2.2 2.1 4.5 8.6 11.4 17.4 18.6 17.2 12.0 11.0 4.9 4.4 2.1 1.5 0.6 0.1 0.1 0.1 0.1 0.1 0.1 0.0 0.1 0.1 0.1 0.2 0.5
10.3 1.9 2.9 0.3 0.5 0.1 0.1 0.2 0.2 0.1 0.3 0.5 1.6 0.9 2.0 1.3 0.9 0.5 2.6 4.2 7.2 10.0 17.3 19.7 21.1 18.2 11.3 7.3 3.8 4.3 0.9 0.4 0.2 0.2 0.4 0.4 0.1 0.1 0.1 0.3 0.2 0.7 0.3 1.1
0.2 0.1 1.0 1.1 0.2 0.6 0.3 0.1 0.0 0.0 0.2 0.6 0.5 0.6 0.2 2.2 0.4 0.3 0.4 2.3 5.7 7.8 16.9 22.4 19.2 18.7 15.0 13.1 7.4 4.3 1.6 0.4 0.6 0.8 1.0 0.5 0.7 0.3 0.2 0.4 0.4 0.8 1.0 1.3
0.5 0.4 0.2 0.4 1.3 0.7 0.4 0.1 0.0 0.2 0.4 0.3 0.1 0.1 0.8 0.7 0.2 0.5 0.7 1.7 4.7 7.6 11.7 19.9 24.0 22.6 17.3 16.3 14.7 7.6 3.4 0.8 0.9 0.7 1.5 1.2 1.1 0.8 1.0 0.7 1.0 1.2 0.4 1.3
0.6 0.8 1.7 1.7 0.5 1.5 0.3 0.1 0.0 0.3 0.3 0.1 0.7 0.7 0.2 0.9 1.6 0.8 1.2 1.2 4.1 7.6 9.4 13.7 19.6 19.8 19.0 18.3 17.4 12.6 6.7 1.3 1.7 0.9 1.0 1.8 2.0 2.1 1.8 1.8 1.3 nan nan nan
Water_Equivalent
0.00 0.00 0.00 0.00 0.00 0.00 0.00 0.00 0.00 0.00 0.00 0.00 0.00 0.00 0.00 0.00 0.00 0.00 0.00 0.00 0.00 0.00 0.00 0.00 0.00 0.00 0.00 0.00 0.00 0.00 0.00 0.00 0.00 0.00 0.00 0.00 0.00 0.00 0.00 0.00 0.00 0.00 0.00 0.00
0.00 0.00 0.00 0.00 0.00 0.00 0.00 0.00 0.02 0.00 0.00 0.00 0.00 0.00 0.00 0.00 0.00 0.00 0.00 0.00 0.00 0.00 0.00 0.00 0.00 0.00 0.00 0.00 0.00 0.00 0.00 0.00 0.00 0.00 0.00 0.00 0.00 0.00 0.00 0.00 0.00 0.00 0.00 0.00
0.00 0.00 0.00 0.00 0.00 0.00 0.00 0.01 0.01 0.01 0.00 0.00 0.00 0.02 0.00 0.00 0.00 0.00 0.00 0.00 0.00 0.00 0.00 0.00 0.00 0.00 0.00 0.00 0.00 0.00 0.00 0.00 0.00 0.00 0.00 0.00 0.00 0.00 0.00 0.00 0.00 0.00 0.00 0.00
0.00 0.00 0.00 0.00 0.00 0.00 0.01 0.00 0.00 0.00 0.23 0.45 0.01 0.58 0.00 0.00 0.00 0.00 0.00 0.00 0.00 0.00 0.00 0.00 0.00 0.00 0.00 0.00 0.00 0.00 0.00 0.00 0.00 0.00 0.00 0.00 0.00 0.00 0.00 0.00 0.00 0.00 0.00 0.00
0.00 0.00 0.00 0.00 0.00 0.00 0.01 0.00 0.00 0.00 0.16 0.16 0.01 0.77 0.00 0.00 0.00 0.00 0.00 0.00 0.00 0.00 0.00 0.00 0.00 0.00 0.00 0.00 0.00 0.00 0.00 0.00 0.00 0.00 0.00 0.00 0.00 0.00 0.00 0.00 0.00 0.00 0.00 0.00
0.00 0.00 0.00 0.00 0.00 0.00 0.00 0.00 0.00 0.02 0.02 1.60 0.21 0.09 0.07 0.00 0.00 0.00 0.00 0.00 0.00 0.00 0.00 0.00 0.00 0.00 0.00 0.00 0.00 0.00 0.00 0.00 0.00 0.00 0.00 0.00 0.00 0.00 0.00 0.00 0.00 0.00 0.00 0.00
0.00 0.00 0.00 0.00 0.00 0.00 0.01 0.05 0.79 0.69 1.73 0.51 0.02 0.09 0.05 0.00 0.00 0.00 0.00 0.00 0.00 0.00 0.00 0.00 0.00 0.00 0.00 0.00 0.00 0.00 0.00 0.00 0.00 0.00 0.00 0.00 0.00 0.00 0.00 0.00 0.00 0.00 0.00 0.00
0.12 0.13 0.00 0.00 0.04 0.24 0.01 0.29 0.65 0.51 0.19 0.04 0.00 0.23 0.11 0.00 0.00 0.00 0.00 0.00 0.00 0.00 0.00 0.00 0.00 0.00 0.00 0.00 0.00 0.00 0.00 0.00 0.00 0.00 0.00 0.00 0.00 0.00 0.00 0.00 0.00 0.00 0.00 0.00
0.15 0.01 0.00 0.00 0.00 0.01 0.02 0.39 0.00 0.39 0.05 0.34 0.02 0.00 0.01 0.00 0.00 0.00 0.00 0.00 0.00 0.00 0.00 0.00 0.00 0.00 0.00 0.00 0.00 0.00 0.00 0.00 0.00 0.00 0.00 0.00 0.00 0.00 0.00 0.00 0.00 0.00 0.00 0.00
0.02 0.15 0.00 0.00 0.00 0.01 0.05 0.02 0.44 1.04 1.14 0.16 0.00 0.05 0.09 0.00 0.00 0.00 0.00 0.00 0.00 0.00 0.00 0.00 0.00 0.00 0.00 0.00 0.00 0.00 0.00 0.00 0.00 0.00 0.00 0.00 0.00 0.00 0.00 0.00 0.00 0.00 0.00 0.00
0.06 0.20 0.01 0.00 0.06 0.31 0.23 1.55 0.31 0.26 0.29 0.68 0.26 0.18 0.05 0.04 0.03 0.04 0.01 0.00 0.00 0.00 0.00 0.00 0.00 0.00 0.00 0.00 0.00 0.00 0.00 0.00 0.00 0.00 0.00 0.00 0.00 0.00 0.00 0.00 0.00 0.00 0.00 0.00
0.04 0.13 0.53 0.01 0.17 0.20 0.09 0.31 0.28 0.40 0.41 0.30 0.59 0.73 0.02 0.17 0.26 0.44 0.15 0.04 0.01 0.01 0.00 0.00 0.00 0.00 0.00 0.00 0.00 0.00 0.00 0.00 0.00 0.00 0.00 0.00 0.00 0.00 0.00 0.00 0.00 0.00 0.00 0.00
0.43 0.27 0.25 0.10 0.25 0.06 0.39 0.41 0.70 0.23 0.27 0.53 1.75 1.13 0.02 0.08 0.19 0.40 0.32 0.05 0.04 0.01 0.00 0.00 0.00 0.00 0.00 0.00 0.00 0.00 0.00 0.00 0.00 0.00 0.00 0.00 0.00 0.00 0.00 0.00 0.00 0.00 0.00 0.00
nan 0.06 0.22 0.40 0.17 0.17 0.71 0.37 0.41 0.72 2.17 0.51 1.37 1.09 0.37 0.21 0.16 0.17 0.10 0.15 0.15 0.19 0.14 0.05 0.05 0.02 0.02 0.02 0.03 0.04 0.05 0.04 0.03 0.01 0.00 0.00 0.00 0.00 0.00 0.00 0.00 0.00 0.00 0.00
0.04 0.47 0.00 0.00 0.01 0.08 0.34 0.75 0.44 1.57 0.72 1.35 1.59 1.16 1.08 1.05 1.74 1.43 1.29 0.81 0.38 0.40 0.68 0.32 0.30 0.17 0.13 0.14 0.14 0.13 0.12 0.08 0.04 0.03 0.05 0.05 0.01 0.00 0.01 0.00 0.00 0.00 0.00 0.00
0.01 0.43 0.41 0.50 0.05 0.27 0.62 0.35 0.32 0.32 0.42 0.60 0.67 0.72 0.69 1.13 0.95 1.05 0.79 0.78 0.61 0.88 0.71 0.56 0.36 0.21 0.23 0.25 0.26 0.23 0.22 0.18 0.14 0.16 0.12 0.08 0.03 0.01 0.01 0.00 0.00 0.00 0.00 0.00
0.26 0.28 0.76 0.21 0.04 0.14 1.03 1.20 0.66 0.62 0.94 1.04 1.43 1.46 1.15 1.06 1.04 1.29 0.98 1.20 1.59 1.60 1.33 1.22 0.65 0.50 0.33 0.27 0.21 0.25 0.18 0.15 0.15 0.12 0.07 0.06 0.03 0.02 0.01 0.00 0.00 0.00 0.00 0.00
0.11 0.28 0.35 0.57 0.16 1.40 0.69 0.18 0.54 1.07 0.94 0.90 0.86 1.27 1.28 1.29 0.79 1.04 1.26 1.93 1.80 2.31 1.77 1.53 1.03 0.86 0.26 0.21 0.20 0.16 0.13 0.14 0.11 0.08 0.04 0.02 0.03 0.01 0.00 0.00 0.00 0.00 0.00 0.00
0.01 0.05 0.85 1.11 0.28 0.02 0.04 0.04 0.33 1.02 0.75 0.51 0.83 0.65 0.66 0.37 0.21 0.17 0.08 0.66 1.57 2.32 2.29 2.02 2.05 1.48 0.57 0.30 0.25 0.23 0.16 0.11 0.07 0.04 0.03 0.02 0.02 0.02 0.01 0.01 0.00 0.00 0.01 0.01
0.01 0.06 0.46 0.57 0.77 0.40 0.06 0.00 0.00 0.16 1.03 0.11 0.58 0.53 0.67 0.41 0.68 0.36 0.33 0.85 1.32 1.88 2.61 3.33 2.27 1.25 0.60 0.21 0.16 0.16 0.09 0.08 0.03 0.02 0.03 0.03 0.02 0.01 0.02 0.01 0.01 0.01 0.01 0.02
0.28 0.37 0.61 0.22 0.94 0.17 0.05 0.08 0.07 0.27 0.30 0.11 0.30 0.48 0.91 1.60 1.12 0.53 0.52 0.61 0.95 1.66 2.66 2.85 1.80 1.38 0.79 0.34 0.31 0.08 0.08 0.07 0.03 0.02 0.01 0.02 0.02 0.02 0.01 0.01 0.01 0.02 0.03 0.03
0.46 0.38 0.36 0.31 0.79 0.96 0.01 0.00 0.19 0.17 0.01 0.04 0.10 0.47 0.98 0.33 0.36 0.39 0.38 0.73 1.23 1.72 2.92 3.31 2.61 1.81 1.92 0.75 0.51 0.28 0.23 0.09 0.02 0.02 0.02 0.02 0.02 0.01 0.01 0.02 0.01 0.01 0.03 0.07
1.08 0.29 0.42 0.05 0.07 0.01 0.02 0.04 0.03 0.02 0.06 0.09 0.30 0.17 0.35 0.21 0.15 0.09 0.39 0.56 0.96 1.47 2.59 3.42 3.66 3.25 1.74 1.17 0.64 0.53 0.16 0.06 0.03 0.03 0.06 0.06 0.02 0.01 0.01 0.03 0.03 0.15 0.04 0.18
0.04 0.02 0.16 0.15 0.02 0.10 0.06 0.02 0.00 0.00 0.04 0.12 0.10 0.12 0.04 0.29 0.06 0.05 0.07 0.29 0.69 0.94 2.30 3.41 2.87 2.91 2.26 2.14 1.62 0.84 0.28 0.06 0.08 0.11 0.17 0.07 0.10 0.05 0.04 0.12 0.10 0.17 0.20 0.24
0.10 0.06 0.03 0.05 0.17 0.11 0.07 0.02 0.01 0.05 0.09 0.06 0.01 0.03 0.14 0.12 0.04 0.09 0.11 0.20 0.50 0.99 1.63 2.89 3.48 3.45 2.69 2.70 2.78 1.62 0.66 0.12 0.13 0.14 0.38 0.23 0.23 0.12 0.18 0.15 0.22 0.22 0.08 0.20
0.11 0.13 0.24 0.23 0.08 0.23 0.06 0.02 0.00 0.05 0.06 0.03 0.11 0.09 0.04 0.14 0.20 0.12 0.16 0.16 0.43 0.82 1.31 1.98 2.91 3.03 3.13 3.16 3.16 2.46 1.51 0.23 0.22 0.12 0.27 0.48 0.43 0.42 0.36 0.35 0.30 nan nan nan
SL_Ratio
nan nan nan nan nan nan nan nan nan nan nan nan nan nan nan nan nan nan nan nan nan nan nan nan nan nan nan nan nan nan nan nan nan nan nan nan nan nan nan nan nan nan nan nan
nan nan nan nan nan nan nan 3.3 3.4 nan nan nan nan nan nan nan nan nan nan nan nan nan nan nan nan nan nan nan nan nan nan nan nan nan nan nan nan nan nan nan nan nan nan nan
3.1 nan nan nan nan nan nan 3.7 3.6 3.7 nan nan nan 3.6 nan nan nan nan nan nan nan nan nan nan nan nan nan nan nan nan nan nan nan nan nan nan nan nan nan nan nan nan nan nan
nan nan nan nan nan nan 4.4 nan nan nan 4.4 4.5 3.2 5.2 nan nan nan nan nan nan nan nan nan nan nan nan nan nan nan nan nan nan nan nan nan nan nan nan nan nan nan nan nan nan
5.0 nan nan nan nan nan 4.8 nan nan nan 3.9 5.0 3.6 4.7 3.3 nan nan nan nan nan nan nan nan nan nan nan nan nan nan nan nan nan nan nan nan nan nan nan nan nan nan nan nan nan
nan nan nan nan nan nan nan nan nan 3.1 3.9 4.9 3.5 4.5 4.7 nan nan nan nan nan nan nan nan nan nan nan nan nan nan nan nan nan nan nan nan nan nan nan nan nan nan nan nan nan
nan nan 2.5 nan 3.5 nan 4.2 4.6 4.6 4.5 4.8 5.0 3.1 4.1 4.5 nan nan nan nan nan nan nan nan nan nan nan nan nan nan nan nan nan nan nan nan nan nan nan nan nan nan nan nan nan
4.3 3.5 3.3 nan 4.0 4.6 4.4 5.2 5.1 6.1 4.7 4.1 nan 6.2 4.3 nan nan nan nan nan nan nan nan nan nan nan nan nan nan nan nan nan nan nan nan nan nan nan nan nan nan nan nan nan
5.2 4.2 nan nan nan 3.9 4.5 4.6 nan 6.5 5.4 6.7 5.1 5.0 4.2 nan nan nan nan nan nan nan nan nan nan nan nan nan nan nan nan nan nan nan nan nan nan nan nan nan nan nan nan nan
4.2 5.7 nan nan 3.7 3.4 4.6 4.3 5.1 4.5 6.6 7.1 5.0 6.1 5.5 nan nan nan nan nan nan nan nan nan nan nan nan nan nan nan nan nan nan nan nan nan nan nan nan nan nan nan nan nan
4.4 5.3 4.0 5.0 4.6 5.5 4.9 4.4 5.4 5.0 6.0 6.3 6.7 5.9 4.8 5.2 5.0 5.3 4.7 nan 5.0 nan nan nan nan nan nan nan nan nan nan nan nan nan nan nan nan nan nan nan nan nan nan nan
3.7 5.0 5.3 4.4 5.0 4.6 4.7 4.8 4.9 5.9 7.0 6.2 7.3 8.3 4.3 4.8 5.2 5.4 5.3 4.4 4.0 3.6 nan nan nan nan nan nan nan nan nan nan nan nan nan nan nan nan nan nan nan nan nan nan
5.2 4.4 5.0 5.1 4.4 4.8 6.3 6.0 6.5 7.0 5.6 8.0 9.4 7.3 3.7 4.4 4.9 4.0 4.5 4.2 3.8 3.7 3.8 nan nan nan nan nan nan nan nan nan nan 5.0 5.0 5.0 nan nan nan nan nan nan nan nan
nan 4.7 5.6 6.0 5.9 5.0 7.6 7.6 7.4 7.3 6.6 6.6 6.8 6.8 5.7 4.7 5.1 4.1 4.5 4.8 4.6 4.4 4.6 4.6 4.8 4.6 4.9 5.1 5.1 5.2 5.3 5.2 5.3 5.2 5.0 5.0 nan nan nan nan nan nan nan nan
4.2 4.8 5.0 5.0 4.9 5.4 6.4 7.1 7.2 8.1 8.6 9.0 7.1 8.7 5.6 5.3 5.4 5.0 5.0 5.1 5.3 5.2 4.8 5.3 5.2 5.2 5.3 5.4 5.4 5.5 5.5 5.5 5.6 5.9 6.1 6.3 6.2 5.7 5.8 6.0 5.0 nan 5.0 5.0
3.4 4.9 4.5 5.2 5.0 6.8 9.9 7.2 7.7 8.5 7.6 7.9 7.2 11.2 6.0 5.2 4.8 5.1 5.2 5.4 5.6 5.0 4.5 4.8 5.2 5.5 5.6 5.6 5.8 5.8 6.3 6.2 6.1 6.2 6.6 6.4 6.4 5.7 6.2 5.7 7.5 5.0 nan nan
6.7 5.8 6.2 7.9 5.4 6.4 7.0 10.2 9.6 7.6 8.7 7.7 10.7 6.6 5.5 5.9 5.7 5.1 5.3 5.3 5.4 4.6 4.7 5.1 5.7 5.8 6.0 6.1 6.1 6.5 6.6 6.6 6.8 6.9 6.9 6.8 6.3 6.0 6.4 6.3 5.0 nan nan nan
6.6 6.6 6.0 6.8 6.1 8.2 6.6 5.9 7.6 8.9 9.4 9.4 8.8 8.4 6.2 6.2 5.4 4.9 4.8 5.1 5.2 4.7 5.0 5.5 5.8 6.3 6.1 6.1 6.4 6.7 6.9 6.7 6.8 6.8 6.4 6.1 5.5 5.4 6.3 6.7 5.4 nan nan nan
4.0 6.1 7.3 8.1 7.7 6.2 6.3 5.7 8.3 11.7 10.0 7.2 9.6 8.9 6.7 5.7 5.2 5.2 4.3 4.7 4.9 4.8 5.2 5.6 5.4 6.0 7.1 6.9 6.7 7.0 7.1 6.9 6.8 6.3 5.9 5.3 4.9 5.1 5.0 5.4 5.0 nan 5.2 5.2
6.5 6.1 6.2 7.0 10.2 11.5 6.6 5.0 4.7 5.9 8.8 6.0 7.7 7.3 7.0 6.2 9.8 5.7 4.9 4.6 5.2 4.9 5.3 5.4 5.4 6.9 7.3 6.7 6.6 7.0 6.9 6.6 6.4 5.6 5.4 5.0 5.0 5.5 5.4 5.3 5.4 5.5 5.2 5.4
6.3 8.8 8.3 8.0 9.1 7.8 6.4 6.0 5.5 10.3 7.7 5.8 6.0 6.3 7.3 8.3 5.6 4.8 4.7 4.8 4.6 5.2 5.4 4.8 5.9 7.3 7.5 7.0 7.2 7.0 6.7 6.8 5.7 5.6 5.3 5.2 5.1 5.4 5.6 5.7 5.3 5.5 6.2 6.1
9.2 9.1 8.3 9.0 9.6 8.8 5.2 5.0 9.4 6.0 5.0 5.1 5.4 5.7 6.7 5.7 5.9 5.6 5.5 6.2 7.0 6.6 6.0 5.6 6.6 6.6 5.7 6.5 8.5 7.6 6.3 6.4 5.9 6.0 6.1 5.8 5.4 5.6 5.6 6.0 6.1 6.1 6.7 7.3
9.5 6.5 6.8 7.1 7.4 5.1 4.9 5.4 5.7 5.6 5.4 5.3 5.5 5.4 5.7 6.1 6.0 5.6 6.6 7.5 7.5 6.8 6.7 5.8 5.8 5.6 6.5 6.2 6.0 8.0 5.7 6.4 6.6 6.6 6.9 6.6 6.0 6.1 5.9 7.3 7.3 4.9 6.9 6.0
5.3 4.7 6.3 7.5 6.4 6.1 5.7 5.5 nan 5.0 4.8 4.8 4.7 5.0 5.0 7.6 5.7 5.8 6.0 8.0 8.3 8.3 7.3 6.6 6.7 6.4 6.6 6.1 4.6 5.1 5.9 6.7 7.0 7.0 5.8 7.0 7.4 6.3 5.9 3.7 3.7 4.9 4.9 5.6
4.8 5.7 6.0 7.1 7.3 6.6 6.1 5.0 4.4 4.6 4.6 4.7 4.3 4.7 5.7 6.1 5.9 6.0 6.7 8.1 9.4 7.7 7.2 6.9 6.9 6.6 6.4 6.0 5.3 4.7 5.1 6.9 6.6 5.0 4.0 5.0 4.7 6.2 5.3 4.3 4.5 5.6 5.2 6.6
5.5 6.2 7.3 7.5 6.0 6.7 6.0 5.8 5.0 5.0 5.3 4.9 6.0 7.9 5.0 6.3 8.0 6.9 7.4 7.4 9.5 9.2 7.2 6.9 6.8 6.5 6.1 5.8 5.5 5.1 4.4 5.8 7.8 7.9 3.7 3.7 4.8 4.9 5.1 5.3 4.2 nan nan nan